Miscellaneous Local Product
Issued by NWS North Platte, NE

Home | Current Version | Previous Version | Text Only | Print | Product List | Glossary On
Versions: 1 2 3 4 5 6 7 8 9 10 11 12 13 14 15 16 17 18 19 20 21 22 23 24 25 26 27 28 29 30 31 32 33 34 35 36 37 38 39 40 41 42 43 44 45 46 47 48 49 50
000
AXUS43 KLBF 011110
MISLBF


WESTERN AND NORTH CENTRAL NEBRASKA HOURLY WEATHER ROUNDUP
NATIONAL WEATHER SERVICE NORTH PLATTE NE
600 AM CDT SAT NOV 01 2014

***STATIONS NOT REPORTING VARIABLES SUCH AS SKY/WEATHER OR
PRESSURE ARE PROVIDED BY THE NEBRASKA DEPARTMENT OF
ROADS...RAWS...AND APRS NETWORKS...AND ARE NOT UNDER
NATIONAL WEATHER SERVICE QUALITY CONTROL***

...OBSERVATIONS IN AND NEAR THE EASTERN PANHANDLE OF NEBRASKA...

CITY           SKY/WX    TMP DP  RH WIND       PRES   REMARKS
PINE RIDGE     CLEAR     34  19  54 S16G30    29.92F WCI  24
CHADRON        PTCLDY    36  22  56 S15       29.91F WCI  27
ALLIANCE       CLEAR     28  18  66 S15       29.98F WCI  16
SIDNEY         CLEAR     26  19  74 S8        30.00F WCI  18
$$

...OBSERVATIONS IN NORTH CENTRAL NEBRASKA...

CITY           SKY/WX    TMP DP  RH WIND       PRES   REMARKS
VALENTINE      PTCLDY    33  15  47 S18G28    30.08F WCI  22
THEDFORD       CLEAR     32  18  55 S16       30.12F WCI  21
AINSWORTH      PTCLDY    31  15  50 S22G28    30.11F WCI  18
O`NEILL        PTCLDY    31  18  57 S17G24    30.23S WCI  20
ORD            CLEAR     27  16  63 SE10      30.25F WCI  17
BROKEN BOW       N/A    N/A N/A N/A MISG      30.21S
$$

...OBSERVATIONS IN SOUTHWEST NEBRASKA AND FAR NORTHEAST COLORADO...

CITY           SKY/WX    TMP DP  RH WIND       PRES   REMARKS
WRAY           FAIR      29  22  74 E7        30.06F WCI  22
HOLYOKE        FAIR      28  21  74 SE8       30.05F WCI  20
IMPERIAL       PTCLDY    29  18  63 SE13      30.10F WCI  19
OGALLALA       CLEAR     30  19  64 SE5       30.09F WCI  25
NORTH PLATTE   PTCLDY    32  16  51 SE16G28   30.13F WCI  21
MCCOOK         PTCLDY    29  17  61 SE10      30.18F WCI  20
LEXINGTON      CLEAR     32  16  52 S16G23    30.22S WCI  21
$$

...SOME WEATHER OBSERVATIONS FROM AROUND THE REGION...

CITY           SKY/WX    TMP DP  RH WIND       PRES   REMARKS
DENVER         PTCLDY    37  28  70 CALM      29.97F
LARAMIE        CLOUDY    39  24  55 SE10      30.02S WCI  32
CHEYENNE       PTCLDY    44  29  55 SW9       29.97S
SCOTTSBLUFF    CLEAR     30  23  75 E15       29.96F WCI  19
RAPID CITY     PTCLDY    37  28  70 SE13      29.83F WCI  29
PIERRE         CLEAR     35  15  44 SE20G28   30.00F WCI  24
WINNER         FAIR      36  14  40 S32G44    30.05F WCI  23
SIOUX FALLS    PTCLDY    28  17  63 S13       30.33F WCI  17
OMAHA          PTCLDY    28  19  69 SE10      30.44F WCI  19
GRAND ISLAND   CLEAR     30  17  58 SE14      30.31F WCI  19
KANSAS CITY    PTCLDY    30  20  66 E9        30.46R WCI  22
WICHITA        CLEAR     32  18  56 SE9       30.40S WCI  24
HAYS           CLEAR     30  14  51 SE14      30.29S WCI  20
LIBERAL        CLEAR     34  21  60 SE10      30.25S WCI  26
GOODLAND       PTCLDY    31  22  69 S18G29    30.08F WCI  19
$$



USA.gov is the U.S. government's official web portal to all federal, state and local government web resources and services.